Estación municipal de St. Julià de Vilatorta (Osona, E.N.Guilleries-Savassona)

Consulta los datos en tiempo real de la estación municipal de St. Julià de Vilatorta





Hora UTC 02:00
Temperatura 18.4 ºC
Subsuelo 10 cm 14.9 ºC
Humedad 91.9 %
Presión 1021.6 hPa
Pluja 0.0 mm
Velocidad viento 1.7 km/h
Dirección viento SE
Radiación solar 0.5 W/m²
Fuel 9.3 %

Webcam

Datos diarios 2026-09-04



Hora UTC (invierno +1h; verano +2h)
Temperatura (ºC) Humedad (%) Presión (hPa) Velocidad viento (km/h) Precipitación (mm) Fuel (%) Radiación solar (W/m²)
Hora UTC Aire Subsuelo 10 cm Humedad Presión Vel. Dir. Vel. Max Dir. Intent. máx 5 min. Fuel Rad. Sol.
00:05 19.7 15.9 86.1 1022.3 3.0 ESE 3.0 ESE 0.0 8.2 0.5
00:10 19.7 15.8 86.1 1022.3 3.1 ESE 5.0 E 0.0 8.1 0.4
00:15 19.6 15.7 85.8 1022.2 2.3 SE 3.5 SE 0.0 8.3 0.2
00:20 19.4 15.8 85.7 1022.2 1.5 ESE 2.3 ESE 0.0 8.3 0.2
00:25 19.4 15.8 87.1 1022.2 1.6 ESE 3.1 E 0.0 8.4 0.2
00:30 19.2 15.7 87.1 1022.2 1.4 ESE 3.2 ESE 0.0 8.4 0.0
00:35 19.2 15.5 88.2 1022.1 2.4 SE 3.4 ESE 0.0 8.4 0.4
00:40 19.3 15.4 87.6 1022.1 1.6 SE 3.8 ESE 0.0 8.5 0.6
00:45 19.2 15.4 87.5 1022.1 1.4 SE 3.1 ESE 0.0 8.6 0.2
00:50 19.1 15.4 88.1 1022.0 2.6 SE 4.2 SE 0.0 8.1 0.6
00:55 19.1 15.4 87.6 1022.0 1.4 ESE 2.0 SE 0.0 8.7 0.2
01:00 19.0 15.4 88.1 1022.0 1.5 SE 2.6 SE 0.0 8.7 0.2
01:05 19.0 15.3 89.5 1021.9 1.5 SE 2.3 SE 0.0 8.8 0.6
01:10 18.9 15.2 89.5 1021.8 1.9 SE 3.4 SE 0.0 8.8 0.2
01:15 19.0 15.1 89.3 1021.8 1.9 ESE 2.7 ESE 0.0 8.9 0.3
01:20 18.9 15.0 89.8 1021.8 1.9 SE 3.0 SE 0.0 8.9 0.3
01:25 19.0 15.0 89.5 1021.8 1.6 SE 2.5 SSE 0.0 9.0 0.2
01:30 18.9 15.0 89.6 1021.8 0.5 ESE 1.0 E 0.0 9.0 0.3
01:35 18.8 15.0 90.8 1021.7 1.5 ESE 2.8 E 0.0 9.1 0.7
01:40 18.8 15.0 90.3 1021.8 1.7 SE 2.7 ESE 0.0 9.2 0.1
01:45 18.5 15.2 89.5 1021.7 1.3 SSE 2.3 SSE 0.0 9.2 0.0
01:50 18.3 15.1 90.1 1021.7 1.7 ESE 2.5 E 0.0 9.3 0.1
01:55 18.4 15.0 91.6 1021.7 1.6 SE 2.6 SE 0.0 9.1 0.4
02:00 18.4 14.9 91.9 1021.6 1.7 SE 2.7 ESE 0.0 9.3 0.5
Máxima 19.7 15.9 91.9 1022.3 3.1 ESE 5.0 E 0.0 9.3 0.7
Mínima 18.3 14.9 85.7 1021.6 8.1
Total 0.0